Regional Weather Roundup
Issued by NWS Upton, NY

Current Version | Previous Version | Graphics & Text | Print | Product List | Glossary Off
Versions: 1 2 3 4 5 6 7 8 9 10 11 12 13 14 15 16 17 18 19 20 21 22 23 24 25 26 27 28 29 30 31 32 33 34 35 36 37 38 39 40 41 42 43 44 45 46 47 48 49 50

000
ASUS41 KOKX 072304
RWROKX

REGIONAL WEATHER ROUNDUP
NATIONAL WEATHER SERVICE NEW YORK NY
600 PM EST SUN FEB 07 2016

NOTE: "FAIR" INDICATES FEW OR NO CLOUDS BELOW 12,000 FEET WITH NO
SIGNIFICANT WEATHER AND/OR OBSTRUCTIONS TO VISIBILITY.

NYZ071-072-176-178-NJZ106-104-080000-
NEW YORK CITY METRO AREA


CITY           SKY/WX    TMP DP  RH WIND       PRES   REMARKS
CENTRAL PARK   MOCLDY    42  23  46 E8        30.04F
LAGUARDIA APRT MOCLDY    41  31  67 NE10      30.02F
KENNEDY INTL   MOCLDY    40  27  59 NE6       30.03F
NEWARK/LIBERTY CLOUDY    42  28  57 NE5       30.01F
BRNX BOT. GARD   N/A     39  28  65 E5        30.04F
TETERBORO      MOCLDY    43  21  41 E7        30.01F
$$

NYZ177-179-078>081-080000-
LONG ISLAND NEW YORK

CITY           SKY/WX    TMP DP  RH WIND       PRES   REMARKS
FARMINGDALE    CLOUDY    39  28  64 N8        30.03F WCI  33
ISLIP          CLOUDY    37  28  70 NE8       30.02F WCI  31
SHIRLEY        CLOUDY    37  29  72 VRB5      30.05F WCI  33
RIVERHEAD        N/A     36  30  80 CALM      30.02F
WESTHAMPTON    CLOUDY    37  28  70 NE9       30.05F WCI  30
EAST HAMPTON   FAIR      37  32  81 NE3       30.05F
MONTAUK POINT    N/A     40  32  73 NE6       30.06F
$$

NYZ052-065-067-080000-
HUDSON VALLEY

CITY           SKY/WX    TMP DP  RH WIND       PRES   REMARKS
WHITE PLAINS   CLOUDY    38  21  50 E5        30.01F WCI  34
NEWBURGH       NOT AVBL
MONTGOMERY     CLOUDY    35  23  61 CALM      29.99F
POUGHKEEPSIE   PTCLDY    42  20  41 E6        30.02S
ALBANY         MOCLDY    40  19  43 N7        30.05F
$$

NJZ001-105-106-008-010-013-015-019>022-104-080000-
NEW JERSEY

CITY           SKY/WX    TMP DP  RH WIND       PRES   REMARKS
NEWARK/LIBERTY CLOUDY    42  28  57 NE5       30.01F
TETERBORO      MOCLDY    43  21  41 E7        30.01F
CALDWELL       PTCLDY    41  22  46 E6        30.01F
MORRISTOWN     MOCLDY    39  23  52 E5        30.01F
SOMERVILLE     PTCLDY    39  24  55 CALM      29.99F
SUSSEX         CLOUDY    38  21  50 CALM      30.00F
ANDOVER          N/A     36  22  56 CALM      29.98F
TRENTON        CLOUDY    39  23  52 E6        29.99F WCI  35
MILLVILLE      CLOUDY    40  25  55 NE6       29.98S
ATLANTIC CITY  CLOUDY    38  27  64 NE7       29.99S WCI  33
WRIGHTSTOWN    CLOUDY    37  32  82 NE6       29.97S WCI  32
TOMS RIVER     CLOUDY    36  27  69 NE6       30.00R WCI  31
BELMAR         MOCLDY    37  27  65 NE6       30.00S WCI  33
$$

PAZ047>061-062-071-080000-
EASTERN PENNSYLVANIA

CITY           SKY/WX    TMP DP  RH WIND       PRES   REMARKS
PHILADELPHIA   MOCLDY    41  23  48 E6        30.00S
ALLENTOWN      CLOUDY    40  22  48 N5        29.97F
SCRANTON       CLEAR     40  23  50 CALM      29.96F
$$

CTZ002-004>006-009-010-012-RIZ004-006-007-MAZ004-011-015-080000-
SOUTHERN NEW ENGLAND
 IN CT

CITY           SKY/WX    TMP DP  RH WIND       PRES   REMARKS
BRADLEY INTL   PTCLDY    38  18  44 CALM      30.05S
HARTFORD       CLOUDY    37  25  61 CALM      30.07S
DANBURY        PTCLDY    37  23  56 CALM      30.04F
WTRBRY/OXFORD  CLOUDY    37  18  44 SE3       30.04F
BRIDGEPORT     CLOUDY    39  26  59 NE6       30.06S WCI  35
MERIDEN        PTCLDY    35  27  72 CALM      30.07R
NEW HAVEN      CLOUDY    35  26  69 CALM      30.06S
CHESTER        FAIR      39  28  65 CALM      30.06R
GROTON         CLOUDY    38  31  76 NE6       30.06F WCI  33
WILLIMANTIC    CLOUDY    33  28  81 NE3       30.07S

 IN RI

CITY           SKY/WX    TMP DP  RH WIND       PRES   REMARKS
PROVIDENCE     CLOUDY    37  27  67 NE6       30.10R WCI  32
BLOCK ISLAND   CLOUDY    39  34  81 NE10      30.05F WCI  32
WESTERLY       CLOUDY    38  27  64 NE5       30.06F WCI  34

 IN MA

CITY           SKY/WX    TMP DP  RH WIND       PRES   REMARKS
BOSTON         CLOUDY    38  28  67 NE8       30.12S WCI  32
WORCESTER      CLEAR     36  22  56 E3        30.06S
WESTFIELD      CLEAR     33  23  66 N3        30.06S
PROVINCETOWN   PTCLDY    38  31  76 NE8       30.13R WCI  32
NANTUCKET      CLOUDY    39  32  76 NE7       30.08F WCI  34
$$

ANZ330-335-338-340-345-350-353-355-080000-
COASTAL MARINE OBSERVATIONS


STATION/POSITION TIME  SKY/WX   TEMP    WIND        PRES    VSBY  WAVE
                                AIR SEA DIR/SP/G                  HT/PER
                 (UTC)          (F)     (DEG/KT/KT) (MB)    (MI)  (FT/S)
NY HARB ENTRANCE 2150            41 44   50/ 12/ 14 1016.3          2/10
4S FIRE IS       NOT AVBL
20S FIRE ISLAND  2150            41 43   40/ 14/ 16 1016.5          2/10
GREAT SOUTH BAY  NOT AVBL
23SW MTP         2250            42 45   70/ 14/ 16 1016.9          2/10
HUDSON CANYON    2150            45 50              1015.5          4/ 4
KINGS POINT      2200            41 40   90/  1/  2 1016.8
EXECUTION ROCKS  NOT AVBL
CENTRAL LI SOUND NOT AVBL
EASTERN LI SOUND 2200            41 42   60/  8/ 10   N/A
ROBBINS REEF     2200            44     100/  7/  7 1016.1
$$


>>>>>>>>>>>>>>>>>>>>>>>>>>>> KEY <<<<<<<<<<<<<<<<<<<<<<<<<<<
>                                                          <
>     SKY/WX - SKY CONDITION/PRESENT WEATHER               <
>     TMP    - TEMPERATURE IN FAHRENHEIT                   <
>     DP     - DEWPOINT IN FAHRENHEIT                      <
>     RH     - RELATIVE HUMIDITY IN PERCENT                <
>     WIND   - DIRECTION AND SPEED IN MPH                  <
>     PRES   - MEAN SEA LEVEL PRESSURE IN INCHES OF HG     <
>     WCI    - WIND CHILL INDEX                            <
>     VSB    - VISIBILITY IN MILES                         <
>     HX     - HEAT INDEX                                  <
>     TC     - TEMPERATURE IN CELSIUS                      <
>     VRB    - VARIABLE WIND DIRECTION                     <
>                                                          <
>>>>>>>>>>>>>>>>>>>>>>>>>>>> KEY <<<<<<<<<<<<<<<<<<<<<<<<<<<





USA.gov is the U.S. government's official web portal to all federal, state and local government web resources and services.